Location: Township of Center
(38.0878°N, 99.8994°W)
Time: 13:56:46
(UTC+00:00)

Daily predictions for brighter satellites

Satellite Brightness Start Highest point End
(mag) Time Altitude Azimuth Time Altitude Azimuth Time Altitude Azimuth
OAO 3 Rocket 4.0 12:04:50 24° WSW 12:06:55 37° SSW 12:11:16 10° SE
Cosmos 1709 Rocket 4.2 12:01:12 10° SSW 12:07:19 50° W 12:13:31 10° N
BREEZE-M DEB (TANK) 4.3 12:03:42 10° SW 12:08:24 64° SE 12:15:36 10° ENE
Cosmos 1844 Rocket 3.9 12:04:56 10° S 12:10:14 45° ESE 12:15:36 10° NE
SJ-12 4.0 12:06:47 10° N 12:10:42 48° WNW 12:14:35 10° SSW
Meteor 1-26 Rocket 4.2 12:06:52 10° N 12:12:42 90° SW 12:18:18 10° S
Meteor PRIRODA 3.6 12:12:33 10° N 12:16:14 58° WNW 12:19:54 10° SSW
Cosmos 1898 Rocket 3.9 12:11:20 10° S 12:16:34 67° ESE 12:21:52 10° NNE
NOSS 3-4 (A) 3.6 12:11:57 10° SW 12:17:34 46° NW 12:23:33 10° NNE
NOSS 3-4 (C) 3.6 12:12:03 10° SW 12:17:41 47° NW 12:23:41 10° NNE
NOSS 3-2 (C) 4.2 12:13:14 12° NW 12:20:33 67° WSW 12:29:08 10° SSE
Cosmos 1689 Rocket 2.1 12:20:03 10° S 12:22:49 52° W 12:24:54 16° NNW
ATLAS 5 CENTAUR R/B 4.4 12:24:24 12° NW 12:24:24 12° NW 12:25:17 10° NNW
GPS 2-04 Rocket1 3.3 12:21:20 15° WSW 12:24:22 49° S 12:27:58 10° E
ATLAS CENTAUR R/B 3.8 12:24:25 10° NNE 12:26:28 14° NE 12:28:35 10° E
Cosmos 1933 3.9 12:22:51 10° NNW 12:26:38 37° W 12:30:24 10° SSW
Cosmos 1606 4.3 12:29:45 17° W 12:29:45 17° W 12:31:52 10° SW
PSLV R/B 3.7 12:26:29 10° NNE 12:30:23 89° ESE 12:34:09 10° SSW
Cosmos 2084 3.8 12:27:20 16° NW 12:30:47 52° WSW 12:35:09 10° SSE
Envisat 3.3 12:26:04 10° NNE 12:31:09 71° ESE 12:36:12 10° S
ASTRO F (AKARI) 4.2 12:28:43 10° N 12:31:45 55° WNW 12:34:48 10° SSW
Meteor 2-3 Rocket 4.1 12:27:55 10° SW 12:33:16 42° WNW 12:38:43 10° N
USA 234 3.2 12:27:25 10° NE 12:33:55 69° NW 12:40:23 10° WSW
Cosmos 2263 Rocket 3.2 12:29:46 10° WSW 12:34:17 24° NW 12:38:49 10° N
H-2A R/B 2.7 12:30:49 10° NNE 12:34:39 65° ESE 12:38:26 10° S
Cosmos 2074 Rocket 3.9 12:29:14 10° S 12:35:26 79° W 12:41:40 10° N
CENTAUR R/B 3.4 12:27:43 10° NW 12:35:54 56° WSW 12:44:29 10° S
ATLAS 2AS CENTAUR R/B 3.2 12:29:29 10° SW 12:37:12 52° NW 12:44:53 10° NNE
RESURS DK-1 2.4 12:33:08 10° SSW 12:37:17 89° ESE 12:41:28 10° NNE
SL-4 R/B 4.0 12:37:42 11° NW 12:39:14 13° NNW 12:41:03 10° NNE
Cosmos 1937 Rocket 3.7 12:34:26 10° SSW 12:39:33 78° ESE 12:44:44 10° NNE
Cosmos 1782 2.9 12:38:12 10° NNW 12:42:08 54° W 12:46:04 10° S
COSMOS 2455 4.4 12:37:55 10° S 12:43:29 41° ESE 12:49:06 10° NE
FALCON 9 DEB 3.2 12:41:31 10° WSW 12:44:37 47° NW 12:47:44 10° NE
SJ-7 4.4 12:41:52 10° N 12:45:50 57° WNW 12:49:51 10° SSW
Aureole 2 Rocket 4.0 12:45:21 10° SSE 12:47:38 29° ESE 12:49:55 10° NE
Cosmos 2184 Rocket 4.0 12:42:25 10° SSW 12:48:39 65° W 12:54:58 10° N
Cosmos 1515 Rocket 3.7 12:46:03 10° NNW 12:50:27 58° W 12:54:49 10° S
CZ-4B R/B 3.9 12:46:04 10° NNE 12:51:21 60° ESE 12:56:41 10° S
Cosmos 405 Rocket 2.6 12:49:45 10° S 12:53:25 88° W 12:57:08 10° N
Meteor 1-4 Rocket 3.5 12:50:42 10° NW 12:53:34 25° W 12:56:25 10° SSW
CZ-2C R/B 3.7 12:48:21 10° SE 12:53:39 48° ENE 12:58:51 10° N
Genesis I 3.1 12:50:08 10° SW 12:53:55 72° WNW 12:57:45 10° NNE
Lacrosse 5 2.5 12:52:09 10° WSW 12:56:49 36° NW 13:01:30 10° NNE
Lacrosse 4 Rocket 1.9 12:56:32 10° NW 13:00:43 47° WSW 13:04:57 10° S
AQUARIUS 4.5 12:56:20 10° NNE 13:00:51 74° ESE 13:05:18 10° S
Cosmos 923 Rocket 4.4 12:55:53 10° NNW 13:00:54 46° WSW 13:05:57 10° S
Cosmos 858 Rocket 4.5 12:56:36 10° SSW 13:01:46 67° WNW 13:06:59 10° NNE
SL-24 DEB 4.3 12:58:14 10° S 13:02:58 86° W 13:07:46 10° N
BREEZE-M (TANK) 3.7 12:52:38 10° SW 13:03:13 69° SE 13:06:19 10° ENE
Okean O Rocket 1.9 12:58:57 10° NNE 13:03:24 78° ESE 13:07:50 10° S
Cosmos 1812 2.7 13:01:54 10° N 13:05:45 84° W 13:09:34 10° S
Cosmos 1943 4.3 13:02:12 10° NW 13:06:44 25° WSW 13:11:15 10° SSW
Cosmos 2184 Rocket 4.2 23:40:55 10° N 23:47:19 83° W 23:53:38 10° S
COSMOS 2428 4.3 23:42:47 10° SW 23:47:57 34° WNW 23:53:09 10° N
Sich 1 3.8 23:45:07 10° NNE 23:48:59 30° ENE 23:52:48 10° SE
SL-24 R/B - RUBIN 2 4.4 23:45:16 10° NNW 23:51:21 54° NE 23:56:42 10° SE
NOAA 12 4.3 23:46:48 10° SSE 23:51:57 54° ENE 23:57:09 10° N
CZ-4C R/B 4.0 23:50:06 10° N 23:53:38 51° WNW 23:57:08 10° SSW
